Year,Month,Day,Hour,Minute,Value (Times are PST for temperature in C)
2019,06,04,00,00,8.20
2019,06,04,00,01,8.20
2019,06,04,00,02,8.20
2019,06,04,00,03,8.20
2019,06,04,00,04,8.20
2019,06,04,00,05,8.20
2019,06,04,00,06,8.20
2019,06,04,00,07,8.20
2019,06,04,00,08,8.20
2019,06,04,00,09,8.20
2019,06,04,00,10,8.20
2019,06,04,00,11,8.20
2019,06,04,00,12,8.20
2019,06,04,00,13,8.20
2019,06,04,00,14,8.20
2019,06,04,00,15,8.10
2019,06,04,00,16,8.10
2019,06,04,00,17,8.10
2019,06,04,00,18,8.10
2019,06,04,00,19,8.10
2019,06,04,00,20,8.00
2019,06,04,00,21,8.00
2019,06,04,00,22,8.00
2019,06,04,00,23,8.00
2019,06,04,00,24,7.90
2019,06,04,00,25,7.90
2019,06,04,00,26,7.90
2019,06,04,00,27,7.90
2019,06,04,00,28,7.90
2019,06,04,00,29,7.90
2019,06,04,00,30,7.80
2019,06,04,00,31,7.80
2019,06,04,00,32,7.80
2019,06,04,00,33,7.80
2019,06,04,00,34,7.80
2019,06,04,00,35,7.80
2019,06,04,00,36,7.70
2019,06,04,00,37,7.70
2019,06,04,00,38,7.70
2019,06,04,00,39,7.70
2019,06,04,00,40,7.70
2019,06,04,00,41,7.70
2019,06,04,00,42,7.60
2019,06,04,00,43,7.60
2019,06,04,00,44,7.60
2019,06,04,00,45,7.60
2019,06,04,00,46,7.60
2019,06,04,00,47,7.60
2019,06,04,00,48,7.60
2019,06,04,00,49,7.60
2019,06,04,00,50,7.60
2019,06,04,00,51,7.60
2019,06,04,00,52,7.60
2019,06,04,00,53,7.60
2019,06,04,00,54,7.60
2019,06,04,00,55,7.60
2019,06,04,00,56,7.60
2019,06,04,00,57,7.60
2019,06,04,00,58,7.50
2019,06,04,00,59,7.50
2019,06,04,01,00,7.50
2019,06,04,01,01,7.50
2019,06,04,01,02,7.40
2019,06,04,01,03,7.40
2019,06,04,01,04,7.40
2019,06,04,01,05,7.40
2019,06,04,01,06,7.40
2019,06,04,01,07,7.40
2019,06,04,01,08,7.40
2019,06,04,01,09,7.40
2019,06,04,01,10,7.40
2019,06,04,01,11,7.30
2019,06,04,01,12,7.30
2019,06,04,01,13,7.30
2019,06,04,01,14,7.30
2019,06,04,01,15,7.30
2019,06,04,01,16,7.30
2019,06,04,01,17,7.30
2019,06,04,01,18,7.30
2019,06,04,01,19,7.30
2019,06,04,01,20,7.20
2019,06,04,01,21,7.20
2019,06,04,01,22,7.20
2019,06,04,01,23,7.20
2019,06,04,01,24,7.20
2019,06,04,01,25,7.20
2019,06,04,01,26,7.20
2019,06,04,01,27,7.10
2019,06,04,01,28,7.10
2019,06,04,01,29,7.10
2019,06,04,01,30,7.10
2019,06,04,01,31,7.10
2019,06,04,01,32,7.10
2019,06,04,01,33,7.10
2019,06,04,01,34,7.10
2019,06,04,01,35,7.10
2019,06,04,01,36,7.10
2019,06,04,01,37,7.10
2019,06,04,01,38,7.10
2019,06,04,01,39,7.10
2019,06,04,01,40,7.10
2019,06,04,01,41,7.10
2019,06,04,01,42,7.10
2019,06,04,01,43,7.00
2019,06,04,01,44,7.00
2019,06,04,01,45,7.00
2019,06,04,01,46,7.00
2019,06,04,01,47,7.00
2019,06,04,01,48,6.90
2019,06,04,01,49,6.90
2019,06,04,01,50,6.90
2019,06,04,01,51,6.90
2019,06,04,01,52,6.90
2019,06,04,01,53,6.90
2019,06,04,01,54,6.90
2019,06,04,01,55,6.90
2019,06,04,01,56,6.90
2019,06,04,01,57,6.80
2019,06,04,01,58,6.80
2019,06,04,01,59,6.80
2019,06,04,02,00,6.80
2019,06,04,02,01,6.80
2019,06,04,02,02,6.80
2019,06,04,02,03,6.80
2019,06,04,02,04,6.80
2019,06,04,02,05,6.80
2019,06,04,02,06,6.70
2019,06,04,02,07,6.70
2019,06,04,02,08,6.70
2019,06,04,02,09,6.70
2019,06,04,02,10,6.70
2019,06,04,02,11,6.70
2019,06,04,02,12,6.70
2019,06,04,02,13,6.60
2019,06,04,02,14,6.60
2019,06,04,02,15,6.60
2019,06,04,02,16,6.60
2019,06,04,02,17,6.50
2019,06,04,02,18,6.50
2019,06,04,02,19,6.50
2019,06,04,02,20,6.50
2019,06,04,02,21,6.50
2019,06,04,02,22,6.40
2019,06,04,02,23,6.40
2019,06,04,02,24,6.40
2019,06,04,02,25,6.40
2019,06,04,02,26,6.40
2019,06,04,02,27,6.40
2019,06,04,02,28,6.40
2019,06,04,02,29,6.40
2019,06,04,02,30,6.40
2019,06,04,02,31,6.40
2019,06,04,02,32,6.40
2019,06,04,02,33,6.40
2019,06,04,02,34,6.40
2019,06,04,02,35,6.40
2019,06,04,02,36,6.40
2019,06,04,02,37,6.40
2019,06,04,02,38,6.30
2019,06,04,02,39,6.30
2019,06,04,02,40,6.30
2019,06,04,02,41,6.30
2019,06,04,02,42,6.30
2019,06,04,02,43,6.30
2019,06,04,02,44,6.30
2019,06,04,02,45,6.30
2019,06,04,02,46,6.30
2019,06,04,02,47,6.30
2019,06,04,02,48,6.30
2019,06,04,02,49,6.30
2019,06,04,02,50,6.30
2019,06,04,02,51,6.30
2019,06,04,02,52,6.30
2019,06,04,02,53,6.30
2019,06,04,02,54,6.20
2019,06,04,02,55,6.20
2019,06,04,02,56,6.20
2019,06,04,02,57,6.30
2019,06,04,02,58,6.30
2019,06,04,02,59,6.20
2019,06,04,03,00,6.30
2019,06,04,03,01,6.30
2019,06,04,03,02,6.30
2019,06,04,03,03,6.20
2019,06,04,03,04,6.30
2019,06,04,03,05,6.20
2019,06,04,03,06,6.20
2019,06,04,03,07,6.20
2019,06,04,03,08,6.20
2019,06,04,03,09,6.20
2019,06,04,03,10,6.20
2019,06,04,03,11,6.20
2019,06,04,03,12,6.20
2019,06,04,03,13,6.20
2019,06,04,03,14,6.20
2019,06,04,03,15,6.20
2019,06,04,03,16,6.20
2019,06,04,03,17,6.20
2019,06,04,03,18,6.20
2019,06,04,03,19,6.20
2019,06,04,03,20,6.10
2019,06,04,03,21,6.10
2019,06,04,03,22,6.10
2019,06,04,03,23,6.10
2019,06,04,03,24,6.10
2019,06,04,03,25,6.00
2019,06,04,03,26,6.00
2019,06,04,03,27,6.00
2019,06,04,03,28,6.00
2019,06,04,03,29,5.90
2019,06,04,03,30,5.90
2019,06,04,03,31,5.90
2019,06,04,03,32,5.90
2019,06,04,03,33,5.90
2019,06,04,03,34,5.90
2019,06,04,03,35,5.90
2019,06,04,03,36,5.90
2019,06,04,03,37,5.90
2019,06,04,03,38,5.90
2019,06,04,03,39,5.90
2019,06,04,03,40,5.80
2019,06,04,03,41,5.80
2019,06,04,03,42,5.80
2019,06,04,03,43,5.80
2019,06,04,03,44,5.80
2019,06,04,03,45,5.80
2019,06,04,03,46,5.80
2019,06,04,03,47,5.70
2019,06,04,03,48,5.70
2019,06,04,03,49,5.70
2019,06,04,03,50,5.70
2019,06,04,03,51,5.70
2019,06,04,03,52,5.70
2019,06,04,03,53,5.70
2019,06,04,03,54,5.60
2019,06,04,03,55,5.60
2019,06,04,03,56,5.60
2019,06,04,03,57,5.60
2019,06,04,03,58,5.60
2019,06,04,03,59,5.70
2019,06,04,04,00,5.70
2019,06,04,04,01,5.70
2019,06,04,04,02,5.70
2019,06,04,04,03,5.70
2019,06,04,04,04,5.70
2019,06,04,04,05,5.70
2019,06,04,04,06,5.80
2019,06,04,04,07,5.80
2019,06,04,04,08,5.80
2019,06,04,04,09,5.80
2019,06,04,04,10,5.90
2019,06,04,04,11,5.90
2019,06,04,04,12,5.90
2019,06,04,04,13,5.90
2019,06,04,04,14,5.90
2019,06,04,04,15,5.90
2019,06,04,04,16,5.90
2019,06,04,04,17,6.00
2019,06,04,04,18,6.00
2019,06,04,04,19,6.00
2019,06,04,04,20,6.00
2019,06,04,04,21,6.00
2019,06,04,04,22,6.00
2019,06,04,04,23,6.10
2019,06,04,04,24,6.10
2019,06,04,04,25,6.10
2019,06,04,04,26,6.10
2019,06,04,04,27,6.10
2019,06,04,04,28,6.10
2019,06,04,04,29,6.10
2019,06,04,04,30,6.10
2019,06,04,04,31,6.10
2019,06,04,04,32,6.10
2019,06,04,04,33,6.10
2019,06,04,04,34,6.00
2019,06,04,04,35,6.00
2019,06,04,04,36,6.00
2019,06,04,04,37,6.00
2019,06,04,04,38,6.00
2019,06,04,04,39,6.00
2019,06,04,04,40,6.00
2019,06,04,04,41,6.00
2019,06,04,04,42,6.00
2019,06,04,04,43,6.00
2019,06,04,04,44,6.00
2019,06,04,04,45,6.00
2019,06,04,04,46,6.00
2019,06,04,04,47,6.00
2019,06,04,04,48,6.00
2019,06,04,04,49,6.00
2019,06,04,04,50,6.00
2019,06,04,04,51,6.00
2019,06,04,04,52,6.00
2019,06,04,04,53,6.00
2019,06,04,04,54,6.00
2019,06,04,04,55,6.00
2019,06,04,04,56,6.00
2019,06,04,04,57,6.00
2019,06,04,04,58,6.00
2019,06,04,04,59,6.00
2019,06,04,05,00,6.00
2019,06,04,05,01,5.90
2019,06,04,05,02,5.90
2019,06,04,05,03,5.90
2019,06,04,05,04,5.90
2019,06,04,05,05,5.90
2019,06,04,05,06,5.90
2019,06,04,05,07,5.90
2019,06,04,05,08,5.80
2019,06,04,05,09,5.80
2019,06,04,05,10,5.80
2019,06,04,05,11,5.80
2019,06,04,05,12,5.70
2019,06,04,05,13,5.70
2019,06,04,05,14,5.70
2019,06,04,05,15,5.70
2019,06,04,05,16,5.70
2019,06,04,05,17,5.60
2019,06,04,05,18,5.60
2019,06,04,05,19,5.60
2019,06,04,05,20,5.60
2019,06,04,05,21,5.60
2019,06,04,05,22,5.50
2019,06,04,05,23,5.50
2019,06,04,05,24,5.50
2019,06,04,05,25,5.50
2019,06,04,05,26,5.50
2019,06,04,05,27,5.50
2019,06,04,05,28,5.50
2019,06,04,05,29,5.50
2019,06,04,05,30,5.50
2019,06,04,05,31,5.50
2019,06,04,05,32,5.50
2019,06,04,05,33,5.50
2019,06,04,05,34,5.50
2019,06,04,05,35,5.50
2019,06,04,05,36,5.50
2019,06,04,05,37,5.50
2019,06,04,05,38,5.40
2019,06,04,05,39,5.40
2019,06,04,05,40,5.40
2019,06,04,05,41,5.40
2019,06,04,05,42,5.40
2019,06,04,05,43,5.40
2019,06,04,05,44,5.40
2019,06,04,05,45,5.40
2019,06,04,05,46,5.40
2019,06,04,05,47,5.40
2019,06,04,05,48,5.40
2019,06,04,05,49,5.40
2019,06,04,05,50,5.40
2019,06,04,05,51,5.40
2019,06,04,05,52,5.40
2019,06,04,05,53,5.40
2019,06,04,05,54,5.40
2019,06,04,05,55,5.40
2019,06,04,05,56,5.40
2019,06,04,05,57,5.40
2019,06,04,05,58,5.40
2019,06,04,05,59,5.40
2019,06,04,06,00,5.40
2019,06,04,06,01,5.40
2019,06,04,06,02,5.40
2019,06,04,06,03,5.40
2019,06,04,06,04,5.40
2019,06,04,06,05,5.40
2019,06,04,06,06,5.40
2019,06,04,06,07,5.40
2019,06,04,06,08,5.40
2019,06,04,06,09,5.50
2019,06,04,06,10,5.50
2019,06,04,06,11,5.50
2019,06,04,06,12,5.50
2019,06,04,06,13,5.50
2019,06,04,06,14,5.60
2019,06,04,06,15,5.60
2019,06,04,06,16,5.60
2019,06,04,06,17,5.60
2019,06,04,06,18,5.60
2019,06,04,06,19,5.60
2019,06,04,06,20,5.60
2019,06,04,06,21,5.70
2019,06,04,06,22,5.70
2019,06,04,06,23,5.70
2019,06,04,06,24,5.80
2019,06,04,06,25,5.80
2019,06,04,06,26,5.90
2019,06,04,06,27,6.00
2019,06,04,06,28,6.10
2019,06,04,06,29,6.20
2019,06,04,06,30,6.30
2019,06,04,06,31,6.40
2019,06,04,06,32,6.50
2019,06,04,06,33,6.60
2019,06,04,06,34,6.70
2019,06,04,06,35,6.80
2019,06,04,06,36,6.90
2019,06,04,06,37,7.00
2019,06,04,06,38,7.10
2019,06,04,06,39,7.20
2019,06,04,06,40,7.30
2019,06,04,06,41,7.40
2019,06,04,06,42,7.50
2019,06,04,06,43,7.60
2019,06,04,06,44,7.70
2019,06,04,06,45,7.80
2019,06,04,06,46,7.90
2019,06,04,06,47,8.00
2019,06,04,06,48,8.10
2019,06,04,06,49,8.20
2019,06,04,06,50,8.30
2019,06,04,06,51,8.40
2019,06,04,06,52,8.50
2019,06,04,06,53,8.70
2019,06,04,06,54,8.80
2019,06,04,06,55,9.00
2019,06,04,06,56,9.10
2019,06,04,06,57,9.30
2019,06,04,06,58,9.40
2019,06,04,06,59,9.60
2019,06,04,07,00,9.80
2019,06,04,07,01,9.90
2019,06,04,07,02,10.00
2019,06,04,07,03,10.20
2019,06,04,07,04,10.30
2019,06,04,07,05,10.50
2019,06,04,07,06,10.60
2019,06,04,07,07,10.70
2019,06,04,07,08,10.80
2019,06,04,07,09,10.90
2019,06,04,07,10,11.00
2019,06,04,07,11,11.10
2019,06,04,07,12,11.20
2019,06,04,07,13,11.30
2019,06,04,07,14,11.40
2019,06,04,07,15,11.50
2019,06,04,07,16,11.60
2019,06,04,07,17,11.70
2019,06,04,07,18,11.80
2019,06,04,07,19,12.00
2019,06,04,07,20,12.00
2019,06,04,07,21,12.10
2019,06,04,07,22,12.20
2019,06,04,07,23,12.30
2019,06,04,07,24,12.40
2019,06,04,07,25,12.50
2019,06,04,07,26,12.60
2019,06,04,07,27,12.70
2019,06,04,07,28,12.80
2019,06,04,07,29,12.90
2019,06,04,07,30,13.00
2019,06,04,07,31,13.10
2019,06,04,07,32,13.20
2019,06,04,07,33,13.30
2019,06,04,07,34,13.40
2019,06,04,07,35,13.50
2019,06,04,07,36,13.60
2019,06,04,07,37,13.70
2019,06,04,07,38,13.80
2019,06,04,07,39,13.80
2019,06,04,07,40,13.90
2019,06,04,07,41,14.00
2019,06,04,07,42,14.10
2019,06,04,07,43,14.10
2019,06,04,07,44,14.20
2019,06,04,07,45,14.20
2019,06,04,07,46,14.20
2019,06,04,07,47,14.30
2019,06,04,07,48,14.30
2019,06,04,07,49,14.30
2019,06,04,07,50,14.40
2019,06,04,07,51,14.50
2019,06,04,07,52,14.50
2019,06,04,07,53,14.60
2019,06,04,07,54,14.60
2019,06,04,07,55,14.70
2019,06,04,07,56,14.70
2019,06,04,07,57,14.80
2019,06,04,07,58,14.80
2019,06,04,07,59,14.90
2019,06,04,08,00,15.00
2019,06,04,08,01,15.00
2019,06,04,08,02,15.10
2019,06,04,08,03,15.10
2019,06,04,08,04,15.10
2019,06,04,08,05,15.20
2019,06,04,08,06,15.20
2019,06,04,08,07,15.30
2019,06,04,08,08,15.30
2019,06,04,08,09,15.30
2019,06,04,08,10,15.30
2019,06,04,08,11,15.30
2019,06,04,08,12,15.30
2019,06,04,08,13,15.30
2019,06,04,08,14,15.30
2019,06,04,08,15,15.30
2019,06,04,08,16,15.40
2019,06,04,08,17,15.40
2019,06,04,08,18,15.40
2019,06,04,08,19,15.40
2019,06,04,08,20,15.50
2019,06,04,08,21,15.50
2019,06,04,08,22,15.50
2019,06,04,08,23,15.50
2019,06,04,08,24,15.60
2019,06,04,08,25,15.60
2019,06,04,08,26,15.60
2019,06,04,08,27,15.60
2019,06,04,08,28,15.60
2019,06,04,08,29,15.60
2019,06,04,08,30,15.60
2019,06,04,08,31,15.60
2019,06,04,08,32,15.60
2019,06,04,08,33,15.60
2019,06,04,08,34,15.60
2019,06,04,08,35,15.70
2019,06,04,08,36,15.70
2019,06,04,08,37,15.80
2019,06,04,08,38,15.80
2019,06,04,08,39,15.90
2019,06,04,08,40,16.00
2019,06,04,08,41,16.10
2019,06,04,08,42,16.10
2019,06,04,08,43,16.20
2019,06,04,08,44,16.20
2019,06,04,08,45,16.20
2019,06,04,08,46,16.20
2019,06,04,08,47,16.10
2019,06,04,08,48,16.10
2019,06,04,08,49,16.10
2019,06,04,08,50,16.10
2019,06,04,08,51,16.10
2019,06,04,08,52,16.10
2019,06,04,08,53,16.10
2019,06,04,08,54,16.20
2019,06,04,08,55,16.20
2019,06,04,08,56,16.30
2019,06,04,08,57,16.30
2019,06,04,08,58,16.40
2019,06,04,08,59,16.40
2019,06,04,09,00,16.50
2019,06,04,09,01,16.50
2019,06,04,09,02,16.60
2019,06,04,09,03,16.70
2019,06,04,09,04,16.70
2019,06,04,09,05,16.80
2019,06,04,09,06,16.80
2019,06,04,09,07,16.80
2019,06,04,09,08,16.90
2019,06,04,09,09,16.90
2019,06,04,09,10,17.00
2019,06,04,09,11,17.00
2019,06,04,09,12,17.10
2019,06,04,09,13,17.20
2019,06,04,09,14,17.30
2019,06,04,09,15,17.30
2019,06,04,09,16,17.40
2019,06,04,09,17,17.50
2019,06,04,09,18,17.60
2019,06,04,09,19,17.70
2019,06,04,09,20,17.80
2019,06,04,09,21,17.90
2019,06,04,09,22,18.00
2019,06,04,09,23,18.00
2019,06,04,09,24,18.10
2019,06,04,09,25,18.10
2019,06,04,09,26,18.10
2019,06,04,09,27,18.10
2019,06,04,09,28,18.10
2019,06,04,09,29,18.20
2019,06,04,09,30,18.20
2019,06,04,09,31,18.20
2019,06,04,09,32,18.20
2019,06,04,09,33,18.20
2019,06,04,09,34,18.30
2019,06,04,09,35,18.30
2019,06,04,09,36,18.30
2019,06,04,09,37,18.40
2019,06,04,09,38,18.40
2019,06,04,09,39,18.40
2019,06,04,09,40,18.50
2019,06,04,09,41,18.50
2019,06,04,09,42,18.60
2019,06,04,09,43,18.70
2019,06,04,09,44,18.70
2019,06,04,09,45,18.70
2019,06,04,09,46,18.80
2019,06,04,09,47,18.80
2019,06,04,09,48,18.70
2019,06,04,09,49,18.70
2019,06,04,09,50,18.70
2019,06,04,09,51,18.60
2019,06,04,09,52,18.60
2019,06,04,09,53,18.60
2019,06,04,09,54,18.50
2019,06,04,09,55,18.40
2019,06,04,09,56,18.20
2019,06,04,09,57,18.20
2019,06,04,09,58,18.10
2019,06,04,09,59,17.90
2019,06,04,10,00,17.80
2019,06,04,10,01,17.70
2019,06,04,10,02,17.70
2019,06,04,10,03,17.60
2019,06,04,10,04,17.60
2019,06,04,10,05,17.60
2019,06,04,10,06,17.60
2019,06,04,10,07,17.60
2019,06,04,10,08,17.70
2019,06,04,10,09,17.70
2019,06,04,10,10,17.70
2019,06,04,10,11,17.80
2019,06,04,10,12,17.80
2019,06,04,10,13,17.80
2019,06,04,10,14,17.80
2019,06,04,10,15,17.80
2019,06,04,10,16,17.80
2019,06,04,10,17,17.80
2019,06,04,10,18,17.80
2019,06,04,10,19,17.80
2019,06,04,10,20,17.80
2019,06,04,10,21,17.80
2019,06,04,10,22,17.90
2019,06,04,10,23,17.90
2019,06,04,10,24,17.90
2019,06,04,10,25,17.90
2019,06,04,10,26,18.00
2019,06,04,10,27,18.00
2019,06,04,10,28,18.10
2019,06,04,10,29,18.10
2019,06,04,10,30,18.20
2019,06,04,10,31,18.30
2019,06,04,10,32,18.30
2019,06,04,10,33,18.40
2019,06,04,10,34,18.50
2019,06,04,10,35,18.60
2019,06,04,10,36,18.70
2019,06,04,10,37,18.70
2019,06,04,10,38,18.80
2019,06,04,10,39,18.80
2019,06,04,10,40,18.80
2019,06,04,10,41,18.90
2019,06,04,10,42,18.90
2019,06,04,10,43,19.00
2019,06,04,10,44,19.10
2019,06,04,10,45,19.10
2019,06,04,10,46,19.20
2019,06,04,10,47,19.20
2019,06,04,10,48,19.30
2019,06,04,10,49,19.30
2019,06,04,10,50,19.30
2019,06,04,10,51,19.20
2019,06,04,10,52,19.10
2019,06,04,10,53,19.10
2019,06,04,10,54,19.10
2019,06,04,10,55,19.10
2019,06,04,10,56,19.20
2019,06,04,10,57,19.20
2019,06,04,10,58,19.30
2019,06,04,10,59,19.30
2019,06,04,11,00,19.40
2019,06,04,11,01,19.50
2019,06,04,11,02,19.50
2019,06,04,11,03,19.60
2019,06,04,11,04,19.60
2019,06,04,11,05,19.70
2019,06,04,11,06,19.70
2019,06,04,11,07,19.80
2019,06,04,11,08,19.80
2019,06,04,11,09,19.90
2019,06,04,11,10,20.00
2019,06,04,11,11,20.00
2019,06,04,11,12,20.00
2019,06,04,11,13,20.00
2019,06,04,11,14,19.90
2019,06,04,11,15,19.90
2019,06,04,11,16,19.90
2019,06,04,11,17,19.80
2019,06,04,11,18,19.80
2019,06,04,11,19,19.70
2019,06,04,11,20,19.70
2019,06,04,11,21,19.70
2019,06,04,11,22,19.60
2019,06,04,11,23,19.60
2019,06,04,11,24,19.60
2019,06,04,11,25,19.50
2019,06,04,11,26,19.50
2019,06,04,11,27,19.40
2019,06,04,11,28,19.40
2019,06,04,11,29,19.30
2019,06,04,11,30,19.20
2019,06,04,11,31,19.20
2019,06,04,11,32,19.20
2019,06,04,11,33,19.20
2019,06,04,11,34,19.20
2019,06,04,11,35,19.20
2019,06,04,11,36,19.30
2019,06,04,11,37,19.30
2019,06,04,11,38,19.40
2019,06,04,11,39,19.40
2019,06,04,11,40,19.40
2019,06,04,11,41,19.50
2019,06,04,11,42,19.60
2019,06,04,11,43,19.70
2019,06,04,11,44,19.80
2019,06,04,11,45,19.90
2019,06,04,11,46,20.00
2019,06,04,11,47,20.10
2019,06,04,11,48,20.20
2019,06,04,11,49,20.30
2019,06,04,11,50,20.30
2019,06,04,11,51,20.40
2019,06,04,11,52,20.50
2019,06,04,11,53,20.60
2019,06,04,11,54,20.70
2019,06,04,11,55,20.70
2019,06,04,11,56,20.70
2019,06,04,11,57,20.80
2019,06,04,11,58,20.80
2019,06,04,11,59,20.80
2019,06,04,12,00,20.80
2019,06,04,12,01,20.70
2019,06,04,12,02,20.70
2019,06,04,12,03,20.70
2019,06,04,12,04,20.60
2019,06,04,12,05,20.50
2019,06,04,12,06,20.40
2019,06,04,12,07,20.40
2019,06,04,12,08,20.30
2019,06,04,12,09,20.30
2019,06,04,12,10,20.30
2019,06,04,12,11,20.40
2019,06,04,12,12,20.40
2019,06,04,12,13,20.40
2019,06,04,12,14,20.40
2019,06,04,12,15,20.30
2019,06,04,12,16,20.30
2019,06,04,12,17,20.20
2019,06,04,12,18,20.10
2019,06,04,12,19,20.10
2019,06,04,12,20,20.00
2019,06,04,12,21,20.00
2019,06,04,12,22,20.00
2019,06,04,12,23,20.00
2019,06,04,12,24,20.00
2019,06,04,12,25,20.00
2019,06,04,12,26,20.10
2019,06,04,12,27,20.10
2019,06,04,12,28,20.20
2019,06,04,12,29,20.20
2019,06,04,12,30,20.30
2019,06,04,12,31,20.30
2019,06,04,12,32,20.30
2019,06,04,12,33,20.30
2019,06,04,12,34,20.30
2019,06,04,12,35,20.20
2019,06,04,12,36,20.20
2019,06,04,12,37,20.20
2019,06,04,12,38,20.20
2019,06,04,12,39,20.20
2019,06,04,12,40,20.10
2019,06,04,12,41,20.10
2019,06,04,12,42,20.10
2019,06,04,12,43,20.10
2019,06,04,12,44,20.10
2019,06,04,12,45,20.10
2019,06,04,12,46,20.10
2019,06,04,12,47,20.10
2019,06,04,12,48,20.10
2019,06,04,12,49,20.20
2019,06,04,12,50,20.20
2019,06,04,12,51,20.30
2019,06,04,12,52,20.30
2019,06,04,12,53,20.30
2019,06,04,12,54,20.40
2019,06,04,12,55,20.40
2019,06,04,12,56,20.50
2019,06,04,12,57,20.50
2019,06,04,12,58,20.60
2019,06,04,12,59,20.60
2019,06,04,13,00,20.70
2019,06,04,13,01,20.70
2019,06,04,13,02,20.80
2019,06,04,13,03,20.80
2019,06,04,13,04,20.80
2019,06,04,13,05,20.80
2019,06,04,13,06,20.90
2019,06,04,13,07,20.90
2019,06,04,13,08,21.00
2019,06,04,13,09,21.00
2019,06,04,13,10,21.00
2019,06,04,13,11,21.00
2019,06,04,13,12,20.90
2019,06,04,13,13,20.90
2019,06,04,13,14,20.90
2019,06,04,13,15,20.90
2019,06,04,13,16,20.90
2019,06,04,13,17,20.80
2019,06,04,13,18,20.80
2019,06,04,13,19,20.80
2019,06,04,13,20,20.70
2019,06,04,13,21,20.70
2019,06,04,13,22,20.70
2019,06,04,13,23,20.60
2019,06,04,13,24,20.60
2019,06,04,13,25,20.50
2019,06,04,13,26,20.50
2019,06,04,13,27,20.50
2019,06,04,13,28,20.60
2019,06,04,13,29,20.60
2019,06,04,13,30,20.60
2019,06,04,13,31,20.60
2019,06,04,13,32,20.60
2019,06,04,13,33,20.70
2019,06,04,13,34,20.70
2019,06,04,13,35,20.70
2019,06,04,13,36,20.70
2019,06,04,13,37,20.70
2019,06,04,13,38,20.60
2019,06,04,13,39,20.60
2019,06,04,13,40,20.50
2019,06,04,13,41,20.40
2019,06,04,13,42,20.40
2019,06,04,13,43,20.40
2019,06,04,13,44,20.40
2019,06,04,13,45,20.30
2019,06,04,13,46,20.30
2019,06,04,13,47,20.40
2019,06,04,13,48,20.40
2019,06,04,13,49,20.40
2019,06,04,13,50,20.40
2019,06,04,13,51,20.40
2019,06,04,13,52,20.40
2019,06,04,13,53,20.40
2019,06,04,13,54,20.30
2019,06,04,13,55,20.20
2019,06,04,13,56,20.20
2019,06,04,13,57,20.10
2019,06,04,13,58,20.00
2019,06,04,13,59,20.00
2019,06,04,14,00,19.90
2019,06,04,14,01,19.90
2019,06,04,14,02,19.90
2019,06,04,14,03,20.00
2019,06,04,14,04,20.00
2019,06,04,14,05,20.00
2019,06,04,14,06,20.10
2019,06,04,14,07,20.10
2019,06,04,14,08,20.10
2019,06,04,14,09,20.10
2019,06,04,14,10,20.10
2019,06,04,14,11,20.10
2019,06,04,14,12,20.10
2019,06,04,14,13,20.20
2019,06,04,14,14,20.20
2019,06,04,14,15,20.20
2019,06,04,14,16,20.20
2019,06,04,14,17,20.10
2019,06,04,14,18,20.10
2019,06,04,14,19,20.10
2019,06,04,14,20,20.10
2019,06,04,14,21,20.00
2019,06,04,14,22,20.00
2019,06,04,14,23,19.90
2019,06,04,14,24,19.90
2019,06,04,14,25,19.90
2019,06,04,14,26,19.90
2019,06,04,14,27,19.90
2019,06,04,14,28,20.00
2019,06,04,14,29,20.00
2019,06,04,14,30,20.10
2019,06,04,14,31,20.20
2019,06,04,14,32,20.20
2019,06,04,14,33,20.30
2019,06,04,14,34,20.40
2019,06,04,14,35,20.40
2019,06,04,14,36,20.30
2019,06,04,14,37,20.30
2019,06,04,14,38,20.30
2019,06,04,14,39,20.30
2019,06,04,14,40,20.30
2019,06,04,14,41,20.30
2019,06,04,14,42,20.30
2019,06,04,14,43,20.30
2019,06,04,14,44,20.30
2019,06,04,14,45,20.30
2019,06,04,14,46,20.40
2019,06,04,14,47,20.40
2019,06,04,14,48,20.40
2019,06,04,14,49,20.30
2019,06,04,14,50,20.30
2019,06,04,14,51,20.30
2019,06,04,14,52,20.40
2019,06,04,14,53,20.40
2019,06,04,14,54,20.40
2019,06,04,14,55,20.40
2019,06,04,14,56,20.40
2019,06,04,14,57,20.50
2019,06,04,14,58,20.50
2019,06,04,14,59,20.50
2019,06,04,15,00,20.60
2019,06,04,15,01,20.60
2019,06,04,15,02,20.60
2019,06,04,15,03,20.60
2019,06,04,15,04,20.60
2019,06,04,15,05,20.70
2019,06,04,15,06,20.70
2019,06,04,15,07,20.70
2019,06,04,15,08,20.70
2019,06,04,15,09,20.80
2019,06,04,15,10,20.80
2019,06,04,15,11,20.90
2019,06,04,15,12,20.90
2019,06,04,15,13,20.90
2019,06,04,15,14,20.90
2019,06,04,15,15,20.90
2019,06,04,15,16,20.90
2019,06,04,15,17,20.90
2019,06,04,15,18,20.90
2019,06,04,15,19,20.90
2019,06,04,15,20,20.90
2019,06,04,15,21,20.90
2019,06,04,15,22,20.90
2019,06,04,15,23,20.90
2019,06,04,15,24,20.90
2019,06,04,15,25,20.90
2019,06,04,15,26,20.90
2019,06,04,15,27,21.00
2019,06,04,15,28,20.90
2019,06,04,15,29,21.00
2019,06,04,15,30,21.00
2019,06,04,15,31,21.10
2019,06,04,15,32,21.10
2019,06,04,15,33,21.10
2019,06,04,15,34,21.20
2019,06,04,15,35,21.20
2019,06,04,15,36,21.20
2019,06,04,15,37,21.20
2019,06,04,15,38,21.30
2019,06,04,15,39,21.20
2019,06,04,15,40,21.20
2019,06,04,15,41,21.10
2019,06,04,15,42,21.10
2019,06,04,15,43,21.00
2019,06,04,15,44,21.00
2019,06,04,15,45,20.90
2019,06,04,15,46,20.90
2019,06,04,15,47,20.90
2019,06,04,15,48,20.90
2019,06,04,15,49,20.80
2019,06,04,15,50,20.80
2019,06,04,15,51,20.70
2019,06,04,15,52,20.70
2019,06,04,15,53,20.70
2019,06,04,15,54,20.60
2019,06,04,15,55,20.50
2019,06,04,15,56,20.50
2019,06,04,15,57,20.40
2019,06,04,15,58,20.40
2019,06,04,15,59,20.30
2019,06,04,16,00,20.30
2019,06,04,16,01,20.30
2019,06,04,16,02,20.20
2019,06,04,16,03,20.20
2019,06,04,16,04,20.20
2019,06,04,16,05,20.20
2019,06,04,16,06,20.30
2019,06,04,16,07,20.30
2019,06,04,16,08,20.30
2019,06,04,16,09,20.30
2019,06,04,16,10,20.20
2019,06,04,16,11,20.20
2019,06,04,16,12,20.20
2019,06,04,16,13,20.20
2019,06,04,16,14,20.20
2019,06,04,16,15,20.30
2019,06,04,16,16,20.30
2019,06,04,16,17,20.30
2019,06,04,16,18,20.30
2019,06,04,16,19,20.30
2019,06,04,16,20,20.30
2019,06,04,16,21,20.30
2019,06,04,16,22,20.30
2019,06,04,16,23,20.30
2019,06,04,16,24,20.30
2019,06,04,16,25,20.30
2019,06,04,16,26,20.30
2019,06,04,16,27,20.30
2019,06,04,16,28,20.30
2019,06,04,16,29,20.40
2019,06,04,16,30,20.40
2019,06,04,16,31,20.50
2019,06,04,16,32,20.50
2019,06,04,16,33,20.60
2019,06,04,16,34,20.60
2019,06,04,16,35,20.50
2019,06,04,16,36,20.50
2019,06,04,16,37,20.40
2019,06,04,16,38,20.40
2019,06,04,16,39,20.40
2019,06,04,16,40,20.50
2019,06,04,16,41,20.60
2019,06,04,16,42,20.60
2019,06,04,16,43,20.70
2019,06,04,16,44,20.80
2019,06,04,16,45,20.80
2019,06,04,16,46,21.00
2019,06,04,16,47,21.10
2019,06,04,16,48,21.10
2019,06,04,16,49,21.20
2019,06,04,16,50,21.30
2019,06,04,16,51,21.30
2019,06,04,16,52,21.30
2019,06,04,16,53,21.40
2019,06,04,16,54,21.40
2019,06,04,16,55,21.50
2019,06,04,16,56,21.60
2019,06,04,16,57,21.60
2019,06,04,16,58,21.60
2019,06,04,16,59,21.70
2019,06,04,17,00,21.70
2019,06,04,17,01,21.70
2019,06,04,17,02,21.60
2019,06,04,17,03,21.70
2019,06,04,17,04,21.70
2019,06,04,17,05,21.70
2019,06,04,17,06,21.80
2019,06,04,17,07,21.80
2019,06,04,17,08,21.90
2019,06,04,17,09,22.00
2019,06,04,17,10,22.00
2019,06,04,17,11,22.10
2019,06,04,17,12,22.20
2019,06,04,17,13,22.30
2019,06,04,17,14,22.30
2019,06,04,17,15,22.40
2019,06,04,17,16,22.40
2019,06,04,17,17,22.50
2019,06,04,17,18,22.60
2019,06,04,17,19,22.60
2019,06,04,17,20,22.60
2019,06,04,17,21,22.60
2019,06,04,17,22,22.60
2019,06,04,17,23,22.50
2019,06,04,17,24,22.50
2019,06,04,17,25,22.40
2019,06,04,17,26,22.40
2019,06,04,17,27,22.30
2019,06,04,17,28,22.30
2019,06,04,17,29,22.20
2019,06,04,17,30,22.20
2019,06,04,17,31,22.20
2019,06,04,17,32,22.20
2019,06,04,17,33,22.20
2019,06,04,17,34,22.10
2019,06,04,17,35,22.10
2019,06,04,17,36,22.10
2019,06,04,17,37,22.20